Theta_e
315 316 315 315 315 316 321 324 325 326 327 324 323 321 321 321 319 318 320 322 322 321 319 320 320 320 320 320 320 321 321 320 320 319 323 325 320 320 320 320 321 320 320 319 319 320 322 325 328 330 330 330 329 329 329 329 329 327 325 323 321 321 322 322 323 323 323 322 325 328 329 330 331 333 333 333 332 330 331 330 329 329 329 329 330 332 333 334 335 334 334 335 335 335 333 330 328
314 314 314 316 317 319 323 323 323 324 324 322 321 320 320 320 320 320 321 321 321 320 319 319 320 320 320 320 320 320 321 321 321 321 323 322 320 322 321 320 321 320 320 320 319 319 321 322 325 328 330 330 329 329 328 328 328 328 325 324 322 322 323 322 322 323 322 324 329 332 332 332 333 333 333 333 332 330 330 330 329 329 329 329 330 332 333 333 333 333 334 335 335 335 334 333 331
314 313 316 321 322 322 322 322 324 323 322 319 318 321 320 320 320 321 321 321 321 320 320 320 320 321 320 320 320 321 322 322 321 321 322 323 322 321 320 320 321 321 320 320 320 318 320 320 322 325 327 330 329 329 328 328 328 328 327 325 324 324 324 323 323 322 323 326 330 333 334 334 334 334 334 333 332 330 330 329 328 328 329 327 327 328 328 327 327 330 334 335 334 334 334 335 334
314 313 317 324 324 324 326 325 327 324 320 319 317 320 321 320 320 320 320 320 320 320 320 320 321 321 321 321 321 322 322 322 322 321 323 324 321 319 319 320 321 321 320 321 320 318 318 319 320 322 325 328 329 328 328 328 328 328 328 326 326 325 325 325 323 323 324 328 330 332 334 335 335 335 334 331 329 329 329 328 328 326 328 326 323 322 322 321 318 321 327 330 331 330 331 333 335
314 314 315 322 325 325 327 324 324 322 319 320 318 320 321 320 320 321 321 320 321 321 320 320 321 322 322 321 321 321 322 322 322 321 321 320 318 318 318 319 320 321 321 320 320 319 317 317 318 320 322 325 327 328 327 328 328 329 329 328 327 326 326 325 324 324 326 329 330 333 335 335 336 334 333 330 326 327 328 327 327 325 325 324 323 322 320 318 315 313 316 319 321 322 323 326 330
319 321 317 320 324 324 324 322 321 321 321 323 320 320 320 319 320 320 321 321 321 321 320 320 321 321 321 321 321 320 322 322 321 321 319 317 318 317 317 318 320 321 321 320 320 320 317 317 317 317 319 321 325 327 326 327 327 328 329 328 327 326 326 326 326 326 326 328 330 333 335 335 336 333 331 329 326 326 327 326 326 324 322 322 323 322 318 315 313 312 312 312 313 314 315 317 320
323 327 323 321 323 321 322 322 322 322 321 323 320 319 320 319 319 320 320 321 322 321 320 321 320 320 321 321 321 321 321 321 319 319 318 317 318 317 317 316 318 320 321 320 320 320 318 317 316 316 317 318 321 324 325 326 327 328 328 327 326 326 326 326 327 326 326 327 329 332 334 335 335 333 330 327 326 325 325 325 323 323 322 322 321 320 318 315 312 311 311 311 311 311 311 312 312
321 324 323 323 324 323 324 324 324 323 321 321 320 319 319 319 320 320 321 320 321 321 321 320 320 320 321 321 321 322 321 320 318 318 318 317 318 317 317 316 316 319 321 321 319 320 319 318 317 316 316 317 318 321 323 324 325 327 327 327 326 326 327 327 327 327 326 325 328 331 333 333 333 332 329 325 325 324 323 322 321 321 320 318 315 314 315 313 312 311 311 311 310 311 310 311 310
321 321 321 323 325 325 325 325 324 323 321 321 319 319 319 319 320 320 320 320 321 321 321 321 320 320 321 321 320 322 322 320 318 317 317 317 317 317 317 316 316 317 320 321 319 320 320 319 318 316 316 316 317 319 320 322 323 324 325 325 326 327 328 328 328 328 326 325 328 331 331 332 331 330 328 324 323 321 318 318 317 316 313 311 309 309 310 310 310 310 310 309 309 309 309 309 309
321 321 321 324 325 324 324 323 323 322 321 321 319 319 319 319 320 320 320 320 321 321 321 321 320 320 320 320 321 323 323 320 319 318 317 317 317 317 317 317 316 316 318 321 321 320 320 320 319 317 316 316 317 317 319 321 321 323 322 323 325 327 328 328 328 328 327 326 328 330 330 330 329 326 324 322 320 316 313 312 312 310 309 308 308 308 309 308 308 308 308 307 307 307 307 306 305
324 322 320 323 323 321 321 321 322 322 321 320 320 320 320 320 320 320 321 320 321 321 321 320 320 319 320 320 321 323 322 320 320 318 317 317 317 317 317 317 316 316 317 319 321 321 320 320 320 318 317 316 316 316 319 320 320 321 321 322 324 326 327 327 327 328 328 326 326 327 328 329 327 323 322 321 316 313 310 308 308 308 307 307 307 308 307 307 306 306 305 305 305 304 304 304 304
326 325 322 323 323 322 322 321 321 322 323 321 320 320 319 320 320 319 320 320 320 319 320 320 320 319 320 319 320 323 323 321 320 318 318 317 317 317 317 317 317 316 316 318 320 321 320 321 320 320 318 316 316 316 318 320 320 320 321 322 322 323 324 324 324 326 328 328 326 325 325 326 325 322 322 319 313 310 309 307 307 307 306 306 305 305 305 305 304 304 304 303 303 303 303 303 304
324 325 325 324 323 323 323 322 322 323 322 321 320 319 318 318 319 320 319 319 318 318 319 320 320 319 319 319 319 320 321 321 320 318 317 317 317 317 317 317 317 316 316 317 319 320 320 321 321 320 319 317 316 317 318 319 320 320 320 321 322 322 321 320 321 324 325 326 325 323 322 322 321 320 319 315 311 309 307 307 306 305 305 304 303 303 303 303 304 303 303 303 303 303 303 304 304
323 323 324 324 324 323 323 323 323 322 321 320 319 318 318 318 318 319 318 317 318 319 319 319 319 318 318 318 319 321 320 320 319 318 318 318 317 317 317 317 317 317 317 316 317 319 319 320 321 321 320 318 316 316 318 320 320 320 321 321 321 320 319 319 319 320 320 320 320 320 319 319 318 318 316 313 310 307 307 306 305 304 304 303 303 303 303 303 303 303 303 303 303 303 304 304 304
321 322 324 323 323 322 323 324 324 322 321 320 319 318 318 318 318 319 318 318 318 318 318 318 318 318 318 318 320 322 320 320 319 318 318 318 317 317 317 317 317 316 316 316 316 317 318 319 320 321 321 320 318 317 317 319 320 321 321 320 319 319 318 319 318 317 316 316 317 317 317 317 316 316 314 311 308 307 306 305 304 303 303 303 303 303 303 303 303 303 303 303 303 304 304 304 305
320 322 324 323 323 322 322 324 324 322 321 319 319 319 318 318 318 318 318 318 318 318 317 317 318 318 318 318 318 319 319 319 318 318 317 317 317 317 317 317 317 317 316 316 316 316 317 318 319 320 321 321 319 318 317 318 319 322 323 322 320 318 319 320 320 318 317 316 316 315 314 314 315 313 311 309 307 307 305 304 304 303 303 303 303 303 304 304 304 304 304 304 304 304 305 305 306
320 321 324 323 324 323 322 323 323 320 318 318 318 319 318 318 318 318 318 318 318 317 317 317 317 318 318 318 317 317 317 317 317 317 316 316 316 316 315 316 316 316 316 316 316 316 316 317 317 318 319 320 321 319 318 318 318 322 326 326 323 321 320 321 321 321 319 318 316 315 314 313 313 311 309 308 307 306 305 304 304 303 303 303 303 304 304 304 304 304 304 305 305 306 306 307 307
321 323 324 323 323 323 321 321 321 319 318 317 317 317 317 317 318 318 318 318 318 317 317 317 317 318 318 318 318 318 318 318 318 317 316 316 315 315 315 315 315 315 315 316 316 316 316 316 316 317 318 319 320 321 320 319 318 320 324 327 326 323 322 322 322 322 320 319 318 316 314 313 313 310 308 308 307 306 305 304 304 303 304 303 304 304 304 305 304 304 305 305 306 307 307 307 307
321 324 323 322 323 322 321 320 320 320 319 318 317 317 317 317 317 317 317 317 317 317 317 317 317 317 318 318 318 319 319 319 319 318 317 317 316 315 315 314 314 315 315 315 315 316 316 316 316 316 317 317 319 320 321 320 319 319 320 321 323 323 323 323 322 322 322 321 319 316 313 312 311 309 308 308 307 305 305 304 304 303 304 304 304 305 305 305 305 305 306 306 307 307 307 307 307
321 322 322 322 322 321 320 319 319 319 319 318 318 317 317 317 317 317 317 317 317 317 317 316 317 317 318 317 317 318 319 319 319 318 318 317 317 316 315 315 314 314 315 315 315 315 315 316 316 316 316 317 318 320 321 321 320 320 320 319 318 320 321 322 322 322 322 322 319 317 313 312 311 308 308 308 306 305 305 304 304 304 304 304 305 306 306 306 306 306 307 307 307 307 307 307 307
321 321 321 321 320 319 319 318 318 319 319 318 318 317 317 316 317 317 317 318 317 317 317 317 317 317 317 317 316 317 318 318 318 318 318 317 316 315 315 314 315 315 316 317 316 315 315 315 315 316 316 317 318 319 320 321 321 320 320 320 318 317 317 319 319 319 320 321 320 317 313 312 310 308 308 308 306 305 304 304 304 304 305 305 306 306 307 307 307 307 307 307 307 307 306 306 306
320 320 320 320 320 319 318 318 318 319 319 318 318 317 317 317 317 317 317 318 317 317 317 317 317 317 317 317 317 317 317 317 317 318 318 317 315 315 315 314 315 315 316 317 316 315 315 315 315 315 315 316 317 318 319 320 321 320 320 320 319 317 316 316 316 315 315 317 318 316 313 312 311 309 308 308 307 305 305 304 304 304 305 306 306 307 307 307 307 307 307 307 307 306 306 306 306
321 320 319 319 318 317 317 317 318 319 318 318 318 317 317 316 316 317 317 317 317 317 317 317 317 318 318 318 317 317 317 317 317 317 317 317 316 315 314 314 314 315 316 316 315 315 314 314 315 314 315 315 316 317 318 319 320 321 320 320 320 319 318 317 315 314 313 313 314 313 312 312 311 309 308 308 307 305 305 305 304 304 305 306 307 307 308 307 307 307 307 307 306 306 306 306 306
320 320 319 319 317 317 316 317 318 318 318 317 317 317 317 316 316 316 316 317 317 316 316 316 317 317 317 318 318 317 317 317 317 317 317 317 316 315 315 315 314 315 315 316 314 314 314 314 314 314 314 315 315 316 317 318 319 320 320 320 320 319 319 318 316 315 314 313 312 312 312 312 312 311 308 308 308 306 305 304 304 304 305 306 307 307 307 307 307 307 306 306 306 306 306 306 306
319 319 319 319 318 317 317 317 318 318 318 317 317 317 317 317 316 316 316 316 316 316 316 316 316 317 317 317 317 317 317 317 317 316 316 316 315 315 315 315 315 315 315 314 314 314 314 314 314 314 314 314 315 315 315 316 317 318 319 319 320 319 320 320 319 317 316 315 313 312 312 312 312 312 310 308 308 306 305 304 304 304 305 306 307 307 307 307 306 307 306 306 306 305 306 306 305
317 317 317 317 317 317 317 317 317 316 316 316 317 317 317 317 316 316 316 316 316 316 317 317 317 317 317 317 316 316 316 316 316 316 316 316 316 315 315 315 314 314 314 314 314 314 314 314 313 313 313 314 314 314 314 315 316 317 317 319 319 320 320 320 320 319 318 317 315 313 313 312 312 312 311 309 309 307 305 305 305 304 304 306 307 307 307 307 306 306 306 306 306 306 306 306 305
317 317 316 315 315 315 315 315 315 315 315 315 316 317 317 316 316 316 316 316 316 316 317 316 317 316 316 316 316 316 316 316 316 316 316 316 316 316 315 315 315 314 314 314 314 314 314 314 314 313 313 313 314 314 314 314 315 315 316 317 318 319 319 319 320 319 319 318 317 315 314 313 312 312 312 311 309 307 306 305 305 304 304 305 306 306 307 306 306 306 306 306 305 305 306 306 306
316 315 315 315 315 315 315 315 315 315 315 316 316 316 316 316 316 316 316 316 316 316 317 316 317 317 316 316 316 316 316 316 316 316 316 316 316 316 316 316 316 315 315 315 314 314 314 314 314 314 313 313 313 313 313 314 314 315 315 316 317 318 319 319 319 319 319 318 317 317 315 314 313 312 312 312 310 308 307 305 305 305 304 305 305 306 306 306 306 306 306 305 305 305 305 305 306
315 314 314 314 314 315 315 315 316 316 316 316 316 316 316 315 315 316 316 317 317 316 317 317 316 316 316 316 316 317 317 316 316 316 316 316 316 316 316 316 316 316 315 315 315 315 314 314 314 313 313 313 313 313 313 313 314 314 315 315 316 317 318 318 318 319 318 318 318 317 316 315 313 312 312 312 311 308 307 306 305 304 304 304 305 306 306 306 305 306 305 305 305 305 306 306 306
314 314 314 314 315 315 316 316 317 316 316 316 315 315 316 316 316 317 317 317 317 317 316 317 316 316 316 316 316 316 316 316 316 316 316 316 316 316 316 316 316 315 315 314 315 315 315 314 314 313 313 313 313 313 313 313 314 314 315 316 316 317 317 318 318 318 319 319 318 317 317 315 314 313 312 312 311 309 307 307 306 305 304 304 304 304 305 305 305 306 306 305 305 305 306 306 306
314 315 315 316 316 316 317 317 317 316 315 315 315 315 316 316 317 318 318 318 317 317 317 317 317 317 317 316 317 316 316 316 316 316 316 315 315 315 315 315 315 315 314 314 314 314 314 314 313 313 313 313 313 313 313 314 314 315 315 316 317 318 318 318 319 319 319 319 318 318 317 316 315 314 313 312 312 310 308 307 306 305 304 304 303 303 304 305 305 305 305 305 305 305 305 305 305
314 315 316 318 318 317 318 318 316 316 315 313 315 316 315 316 317 318 319 318 317 316 316 317 316 316 317 316 316 317 316 316 316 316 315 315 315 315 315 314 314 314 314 313 313 313 314 314 313 313 313 313 313 313 313 314 315 315 316 318 319 319 320 320 320 320 320 319 318 318 317 316 315 315 314 313 312 311 309 307 307 306 304 303 303 303 303 304 305 305 305 305 304 304 305 305 305
316 316 317 319 319 317 319 320 317 316 315 314 315 316 316 316 317 318 318 317 317 316 316 316 316 316 316 316 316 317 316 316 316 315 315 315 314 313 313 313 313 313 313 313 312 312 313 314 313 313 312 311 312 312 313 314 315 316 316 318 319 320 320 320 320 320 320 319 319 318 317 317 316 315 315 314 312 311 310 308 307 306 305 303 303 302 302 303 304 305 305 305 304 304 304 304 304
319 319 318 319 320 318 319 320 319 317 316 315 315 314 315 316 316 316 316 317 316 316 316 316 316 316 316 316 316 316 316 316 316 316 315 314 312 311 311 311 312 312 312 312 312 312 312 313 313 312 311 310 310 311 311 312 314 316 317 318 319 320 320 320 320 320 319 319 319 319 318 317 316 316 316 314 313 312 310 309 307 307 306 304 303 302 302 302 303 304 304 304 304 304 304 304 304
319 320 319 319 319 319 319 319 320 319 318 318 317 315 316 316 316 316 316 317 317 316 316 316 316 317 317 316 317 317 315 315 315 315 314 312 311 311 311 311 311 311 311 311 311 310 310 311 311 310 309 309 309 309 310 310 312 313 315 316 318 319 319 320 320 320 319 319 319 319 318 318 317 317 316 315 314 313 311 310 308 307 306 305 303 302 301 301 302 303 303 304 304 304 304 304 304
318 319 319 319 318 318 319 319 319 319 319 318 319 318 318 318 317 316 317 317 316 316 316 317 317 317 317 317 316 315 314 313 313 313 312 311 310 311 311 311 311 311 311 310 310 310 310 310 310 310 309 309 309 309 309 310 311 312 313 314 315 317 317 318 318 318 318 318 319 318 318 318 318 317 317 316 315 314 312 310 309 308 307 305 304 302 301 301 301 302 303 304 304 303 303 303 303
318 319 319 319 319 319 318 319 319 319 319 319 319 319 318 318 317 316 316 316 316 316 316 316 317 317 317 317 316 314 313 312 311 311 310 310 310 310 310 311 311 311 311 310 310 310 310 310 310 310 310 309 309 309 309 309 309 310 311 312 313 314 315 316 316 317 317 318 318 318 318 318 317 317 317 316 316 315 313 311 309 307 307 306 305 304 302 301 301 301 302 303 303 303 303 303 303
319 319 319 319 319 319 318 318 319 318 318 318 318 318 317 317 317 316 316 316 316 316 316 316 316 317 316 315 314 313 312 311 311 310 310 310 310 310 311 311 311 311 311 311 311 310 310 309 309 310 310 309 309 309 310 310 310 310 311 312 312 313 314 315 315 315 315 316 316 317 317 317 317 317 316 316 315 315 314 312 310 308 307 306 305 304 302 301 301 300 301 302 302 303 303 303 303
320 319 320 320 319 319 318 319 318 317 317 318 318 317 317 317 316 316 316 315 316 317 316 317 317 316 315 314 312 311 311 310 309 308 309 309 310 310 311 311 311 311 310 310 310 310 310 310 309 309 309 308 308 308 309 309 310 310 310 311 312 313 313 314 313 313 313 313 314 314 314 314 315 315 315 315 315 315 314 313 311 309 307 306 305 305 304 302 301 300 300 301 302 302 302 302 303
321 320 320 320 319 320 320 320 318 317 317 317 317 317 317 316 316 316 316 316 317 318 317 316 315 313 313 312 311 310 309 308 307 307 307 308 309 310 310 310 310 310 310 310 310 310 310 310 310 309 309 308 308 308 308 308 308 307 308 308 309 310 310 310 310 310 310 310 310 310 311 311 311 312 312 312 313 313 314 314 313 311 308 306 305 305 305 303 302 301 300 300 301 301 302 302 302
321 322 321 320 320 320 320 319 318 317 317 318 318 319 319 318 318 319 318 318 317 317 316 314 313 312 311 310 309 309 308 307 306 306 306 307 308 308 309 309 310 310 310 310 310 310 310 309 309 309 309 309 309 309 309 308 308 307 307 306 307 307 307 307 307 308 308 308 308 308 308 308 308 309 309 310 310 311 312 313 313 312 311 308 305 304 304 304 303 301 300 300 300 301 301 302 302
320 322 322 321 320 321 321 321 320 319 319 320 320 321 322 321 320 321 320 320 318 316 314 312 312 311 310 310 309 307 306 306 305 305 306 307 308 308 308 309 309 309 309 309 309 309 309 309 309 309 309 309 309 309 309 309 309 308 307 306 306 306 307 307 307 308 308 308 307 307 307 306 306 306 306 307 307 308 309 310 312 312 312 311 308 305 303 302 302 301 301 300 300 300 300 301 302
320 322 323 322 321 321 321 321 321 320 320 319 318 320 321 320 320 320 320 321 317 313 312 312 311 310 309 309 308 307 306 305 305 305 305 305 306 307 308 308 308 308 308 307 307 308 308 308 308 308 308 308 309 309 309 309 309 308 307 306 306 305 306 306 306 307 307 307 307 307 306 305 305 305 305 305 305 306 306 307 309 310 311 311 310 308 305 303 302 301 300 299 299 299 299 299 301
321 322 322 321 320 320 320 319 320 320 318 318 317 319 320 319 320 319 320 320 315 311 311 311 310 309 308 307 306 306 305 305 305 305 305 305 305 305 306 307 307 307 307 307 307 307 308 308 308 308 307 307 308 308 308 309 308 308 307 306 305 305 305 305 305 305 305 306 306 305 305 304 304 304 304 304 304 304 304 305 305 307 308 309 310 309 308 305 302 301 299 299 298 298 298 298 299
322 320 318 318 317 317 317 318 319 318 318 319 320 320 321 322 321 320 320 318 313 311 311 310 310 309 307 306 305 304 304 303 303 303 304 304 305 305 305 305 305 306 306 306 306 306 307 307 307 307 307 307 307 307 307 308 308 307 306 306 305 305 305 305 305 305 304 305 305 305 304 304 303 303 303 303 303 303 303 303 303 304 305 306 307 309 308 307 305 302 300 299 298 298 298 298 298
318 317 317 317 317 318 318 318 318 318 318 319 321 321 322 325 324 321 322 318 313 312 311 309 308 307 306 305 304 304 303 302 302 302 302 303 304 304 305 305 305 306 306 306 305 306 305 305 305 305 305 306 306 306 307 307 307 307 306 306 305 305 305 304 304 304 304 304 304 304 304 304 303 303 303 302 302 302 302 302 302 302 303 303 304 306 307 307 306 304 301 299 298 297 297 297 297
316 316 317 317 319 319 318 318 317 318 321 322 322 321 321 325 326 320 319 317 313 311 310 308 307 306 305 304 303 303 302 301 302 302 303 303 304 305 305 306 306 305 305 305 305 305 304 304 304 304 305 305 305 306 306 306 306 306 306 306 305 305 305 305 305 304 304 304 303 303 303 303 303 303 303 302 302 302 302 301 301 301 301 302 302 303 304 305 306 305 303 300 298 297 297 297 297
315 316 316 318 321 320 318 318 317 319 324 324 323 322 320 324 326 317 314 315 313 311 310 308 306 305 304 303 302 301 301 300 301 302 302 303 304 304 304 303 303 303 303 303 303 303 303 303 303 304 304 304 305 305 305 305 305 305 305 305 304 304 304 305 305 305 304 304 303 303 303 303 303 302 302 302 301 301 301 301 301 301 300 301 301 301 302 303 304 304 303 301 299 298 297 297 296
315 315 315 318 323 321 320 322 322 322 324 323 323 323 322 323 322 315 312 311 311 310 309 307 305 304 303 302 302 300 300 300 300 301 301 301 302 302 302 301 301 301 301 301 301 301 301 302 302 303 304 304 304 304 304 304 304 304 304 304 303 303 303 303 304 304 304 304 304 304 303 302 302 302 301 301 301 301 301 300 300 300 300 300 300 300 300 301 302 302 302 301 300 298 297 297 296
314 316 318 321 321 319 319 321 321 321 321 320 320 320 322 323 319 313 309 308 308 307 306 305 304 303 303 302 301 300 299 299 300 300 300 300 300 300 300 300 300 300 300 300 300 300 300 301 302 302 302 303 303 304 304 304 303 303 303 302 302 302 302 302 302 303 304 304 304 304 303 303 302 302 301 301 301 300 300 300 300 300 299 299 299 299 299 299 300 300 301 301 300 299 297 297 296
314 317 321 322 320 318 316 317 318 319 320 320 319 319 323 323 316 311 308 306 305 305 304 304 303 302 302 301 300 300 299 300 300 300 299 299 299 299 299 299 299 299 299 299 299 299 299 300 300 300 301 301 302 302 303 303 302 302 301 301 301 301 301 301 301 302 302 303 304 304 304 303 303 302 302 301 301 300 300 299 299 299 299 298 299 299 299 299 299 299 299 299 300 299 298 297 296
317 318 320 321 321 319 318 319 319 320 321 321 320 322 323 318 312 308 307 305 305 304 304 303 303 302 301 300 300 299 299 299 299 299 299 300 300 300 300 300 300 299 299 299 298 298 298 298 298 299 299 299 300 300 300 300 300 300 300 299 299 300 300 300 300 301 301 301 302 303 303 303 303 302 302 302 301 301 300 299 299 299 298 298 298 298 298 298 298 298 298 298 299 299 298 297 297
319 319 321 321 319 319 320 321 320 319 320 319 318 320 319 315 311 308 306 306 305 304 303 303 302 302 301 300 299 299 299 298 299 299 299 300 300 300 300 300 300 299 299 298 297 297 297 296 296 297 297 297 297 297 298 298 298 298 298 298 298 299 299 299 299 299 299 300 300 300 301 302 302 302 302 302 302 301 300 299 299 299 298 298 298 298 297 297 297 297 298 298 298 298 298 298 297
319 320 319 317 318 320 319 319 319 319 319 317 315 317 316 315 315 310 307 306 305 305 304 303 302 302 301 300 299 299 299 299 299 299 299 299 299 299 299 299 298 297 297 296 296 295 295 294 294 294 294 294 294 294 295 295 295 296 296 296 297 297 297 297 298 298 298 298 299 299 299 299 300 301 301 302 302 302 301 300 299 299 299 298 298 298 297 297 297 297 297 297 297 297 297 297 297
316 316 315 315 318 320 318 317 319 320 318 317 317 317 315 316 315 311 308 307 306 305 305 304 303 302 301 300 299 299 298 298 298 299 299 299 298 297 297 296 296 295 295 294 294 293 293 293 293 293 292 292 292 292 292 292 293 293 293 294 294 294 295 295 296 297 297 298 298 297 297 297 298 298 299 300 301 301 302 301 300 299 299 299 298 298 298 297 297 296 296 296 296 296 296 297 297
313 313 315 316 317 318 317 317 319 319 319 318 318 317 317 316 314 311 308 307 306 306 305 304 303 302 301 300 299 298 298 297 298 297 297 297 296 295 295 294 293 293 292 292 292 292 292 292 291 291 291 291 291 291 291 291 291 291 291 291 291 292 293 294 294 295 296 296 296 296 296 295 295 296 296 297 298 299 300 301 301 301 300 299 299 298 298 297 297 297 296 296 296 296 296 296 296
314 313 315 315 316 317 317 316 317 318 317 317 317 316 316 315 311 309 308 308 308 307 306 304 302 301 300 299 299 298 297 297 296 296 295 294 293 293 292 292 292 292 291 291 291 291 291 290 290 290 290 290 290 290 289 289 289 289 289 290 290 290 291 291 292 293 293 294 294 294 294 294 293 293 294 294 295 296 297 299 300 301 300 300 299 299 298 298 297 297 297 296 296 296 295 295 295
315 315 314 314 316 317 317 316 316 315 315 316 316 315 316 313 308 308 309 308 308 306 305 304 301 300 299 298 298 298 297 296 295 294 293 292 292 292 292 292 291 291 291 291 291 291 290 290 290 290 290 289 289 289 289 289 289 289 289 289 289 289 290 290 290 290 290 291 291 292 292 292 292 292 292 292 292 293 294 295 297 298 299 300 299 299 299 298 297 297 297 296 296 295 295 295 295
Wind_Speed
10 10 9 9 8 9 8 5 4 2 1 4 4 1 2 1 1 3 3 5 4 4 7 4 4 4 5 5 4 8 9 6 5 3 0 0 3 5 6 1 3 3 6 6 9 15 16 17 18 18 17 16 16 16 15 16 16 16 15 14 13 12 11 10 9 8 8 7 6 5 4 4 4 5 6 6 5 5 5 5 4 4 4 4 4 5 5 6 6 6 5 5 5 4 3 3 2
9 9 7 7 7 5 6 4 2 2 2 3 1 3 1 1 2 2 5 6 4 3 5 5 4 4 5 6 7 8 7 6 7 4 2 3 6 6 5 3 3 4 6 6 7 14 16 18 18 18 18 17 17 16 16 16 16 16 16 15 14 13 12 11 10 10 8 6 5 5 5 5 5 7 8 7 6 6 6 5 5 4 4 4 4 5 5 6 6 5 6 6 7 7 6 5 5
6 6 4 5 7 4 5 3 2 3 4 2 2 2 1 2 4 5 6 6 5 4 5 5 4 4 3 5 4 4 4 3 2 2 2 4 6 6 6 4 4 5 7 6 6 12 16 17 18 19 18 18 18 17 17 16 17 17 16 15 14 13 12 11 11 10 8 6 7 7 7 7 7 9 9 8 7 6 5 5 5 5 5 5 6 5 6 7 7 5 5 6 7 7 8 8 8
5 3 2 2 6 4 3 2 2 3 4 2 2 2 4 2 4 5 6 6 2 3 3 4 3 1 2 4 4 4 6 3 1 1 1 4 7 7 6 5 5 7 9 8 7 11 14 16 18 19 19 19 19 18 18 17 17 18 17 16 15 14 13 11 11 9 8 8 8 9 9 9 10 11 10 9 7 6 6 5 6 6 6 7 8 8 9 10 10 8 7 8 8 8 8 9 10
2 2 2 1 3 3 1 1 2 3 3 2 2 2 5 4 5 5 5 3 1 1 2 3 2 1 3 6 4 3 3 2 1 4 4 6 7 7 6 5 6 7 9 10 9 11 14 15 17 18 19 19 19 19 19 18 18 18 18 17 15 14 13 12 11 10 9 9 10 10 11 11 12 13 13 11 8 7 7 7 8 9 9 9 10 12 12 13 13 12 11 11 11 11 11 10 11
4 4 2 1 3 4 2 2 3 3 2 3 2 4 6 5 6 6 6 5 2 2 2 2 3 4 5 6 6 5 3 2 3 5 7 8 7 7 6 6 6 8 10 11 11 11 13 15 17 18 19 19 20 20 20 19 19 19 18 17 17 16 15 13 12 11 11 11 12 12 13 13 14 15 14 12 10 9 9 10 10 11 11 12 13 14 15 15 14 14 13 13 13 13 13 13 13
3 3 2 2 3 2 2 3 5 3 1 3 2 4 5 6 8 7 6 4 2 3 1 2 2 4 5 4 5 6 4 4 5 6 6 7 7 8 7 7 7 9 10 12 14 13 14 15 17 18 19 19 20 21 20 20 19 20 19 18 18 17 15 14 14 13 12 13 14 14 15 15 16 17 16 14 12 12 12 12 13 13 14 14 15 17 18 17 16 15 14 14 14 14 15 15 15
4 3 2 2 1 2 2 4 6 3 1 2 3 2 3 5 6 4 5 4 1 2 3 3 1 2 4 3 4 5 4 5 5 5 4 5 6 7 7 8 7 9 11 12 16 15 15 15 17 19 19 20 20 21 21 20 20 20 20 19 18 18 16 16 15 14 14 15 15 16 16 16 17 18 17 16 15 14 15 15 15 16 16 16 16 17 18 18 17 15 14 14 15 15 15 15 15
3 4 3 2 2 2 3 5 4 2 1 4 3 2 2 4 3 2 4 5 4 2 2 4 3 2 4 5 6 6 7 5 3 4 3 4 6 7 7 7 7 9 11 12 17 17 16 16 18 19 20 21 21 22 21 21 21 21 21 20 19 19 18 17 17 16 15 16 16 17 18 17 18 19 19 18 17 16 16 16 16 16 15 14 14 14 14 15 14 13 13 12 13 13 13 13 12
4 4 2 1 1 3 4 4 1 2 3 3 2 3 6 5 4 2 4 5 4 1 1 3 4 7 7 8 8 6 7 5 4 5 3 5 7 8 8 8 7 9 11 13 17 19 17 18 18 19 20 22 22 22 22 21 21 21 21 20 20 20 20 19 18 18 17 18 18 19 20 19 19 19 19 19 18 16 14 13 14 13 12 11 11 11 11 11 11 11 10 10 10 10 9 9 8
4 5 1 2 2 4 4 3 4 4 5 2 3 7 7 4 3 4 4 5 6 2 4 5 3 7 9 9 10 10 10 9 8 6 5 7 8 9 9 8 8 8 10 12 17 19 19 19 19 20 21 22 23 23 23 22 22 22 22 20 20 21 21 21 20 20 19 20 20 20 21 21 21 20 19 20 18 15 11 11 12 11 10 10 10 10 10 10 10 10 9 8 8 7 7 7 6
3 3 1 2 3 4 4 5 5 5 6 5 3 9 5 2 1 5 4 4 7 8 6 6 0 4 4 6 9 8 9 10 10 7 6 8 10 12 11 8 9 9 10 12 16 19 19 20 20 20 21 23 24 24 24 23 24 23 23 22 21 22 22 22 21 21 21 22 22 22 22 22 22 22 21 20 18 13 10 11 11 10 10 10 9 9 9 9 9 8 7 7 7 6 6 6 6
3 5 2 2 4 4 5 4 5 5 5 2 6 6 3 1 2 6 5 7 10 9 3 2 2 6 4 9 11 8 11 11 8 6 7 9 12 13 13 10 9 9 11 11 15 19 20 20 21 21 22 23 24 25 25 25 25 24 24 23 23 22 22 23 22 22 22 22 23 22 22 23 23 22 22 20 16 11 10 11 11 10 10 9 9 9 9 9 8 8 7 7 6 6 6 6 7
4 6 3 2 4 5 4 4 4 3 4 3 6 5 3 2 4 5 5 6 9 4 4 6 7 5 6 10 8 6 11 11 7 7 9 13 17 16 14 13 11 11 11 12 14 18 20 20 21 22 23 24 25 26 27 26 26 26 25 24 24 23 23 23 22 23 22 22 22 22 22 22 22 22 21 20 16 12 11 11 11 11 10 10 9 9 9 9 8 7 7 7 7 7 7 7 7
4 6 3 2 4 5 4 4 2 1 3 3 5 2 1 6 6 5 4 5 8 6 9 14 9 4 5 6 4 5 7 8 10 13 16 19 20 19 16 15 14 13 13 13 14 17 19 20 21 22 24 25 26 27 28 27 27 27 26 26 25 24 23 23 23 23 22 22 22 22 22 22 22 21 21 19 16 12 12 12 12 12 11 10 10 10 10 9 8 8 8 8 7 7 7 7 7
4 4 2 2 3 5 3 3 2 2 2 3 3 1 1 6 6 5 6 7 10 14 16 13 11 11 12 15 16 16 15 14 17 20 21 21 21 20 18 17 16 16 16 16 15 16 18 21 22 23 25 26 27 28 29 28 28 28 28 27 26 25 24 23 24 23 23 22 22 22 22 22 21 21 20 19 16 14 14 14 13 13 12 11 11 11 10 10 9 8 8 8 8 8 8 8 7
2 1 1 3 4 5 3 2 1 0 4 3 1 2 2 5 7 5 7 10 12 17 20 17 17 19 22 24 22 21 21 19 19 19 20 20 20 21 21 20 19 19 18 18 17 17 18 20 23 24 25 26 27 28 30 29 29 28 27 27 27 26 26 25 25 25 24 24 23 23 22 22 22 21 20 18 17 16 16 15 15 14 13 13 13 12 11 10 9 9 9 9 9 9 8 8 7
2 1 3 4 5 5 3 4 4 4 4 6 7 9 8 7 8 4 4 8 12 15 21 22 20 21 24 25 23 24 23 18 16 17 19 20 21 23 24 23 22 21 20 19 19 19 19 20 22 24 25 26 26 27 29 30 30 29 28 28 28 28 28 27 27 27 26 26 25 24 23 23 22 21 20 20 19 18 17 17 16 16 15 15 14 13 12 11 10 10 10 10 10 9 8 8 7
5 3 3 4 4 6 8 8 7 5 5 9 12 13 10 8 12 9 5 8 11 12 18 23 22 21 21 20 21 24 24 20 18 19 20 22 24 24 25 25 24 23 21 20 19 19 20 20 22 24 25 26 27 27 28 28 30 30 30 30 30 30 30 30 30 29 29 28 27 26 24 23 23 22 22 22 21 19 18 18 18 17 17 16 15 14 13 12 12 12 11 11 10 10 9 8 8
9 6 3 5 6 7 10 12 10 8 10 10 10 12 12 13 16 12 8 9 9 9 15 19 20 19 18 17 18 18 20 19 19 21 22 24 26 26 26 26 25 24 22 20 18 18 20 21 22 23 25 27 28 28 28 28 29 30 30 31 32 32 32 32 32 32 31 30 29 27 26 24 23 23 24 23 22 21 20 19 19 19 19 18 17 16 15 14 13 13 12 11 11 10 9 9 9
7 7 4 6 7 8 11 16 16 11 9 8 10 12 13 15 16 13 9 8 6 11 18 20 22 22 21 23 22 20 19 18 20 22 24 25 26 26 24 24 23 23 22 22 20 19 18 19 21 22 24 27 29 30 29 29 29 30 30 31 31 32 32 33 33 34 33 32 31 29 27 26 25 25 26 24 22 22 22 21 21 21 21 20 19 18 17 16 15 14 13 12 12 11 10 10 9
5 7 9 11 11 8 12 17 14 9 7 9 11 10 12 15 14 14 11 8 8 14 20 23 27 27 27 27 25 24 23 22 22 24 27 26 25 23 22 21 20 20 21 23 23 21 18 17 18 20 23 26 29 31 31 31 30 31 31 31 31 30 31 32 33 34 34 33 33 31 29 28 27 27 27 25 24 23 23 22 23 23 22 21 20 19 18 17 16 15 14 14 13 12 12 11 10
7 8 11 14 14 11 15 18 12 8 7 10 12 12 15 15 15 18 16 16 20 23 24 27 30 30 29 28 25 24 24 24 25 26 28 26 24 22 19 18 18 17 19 21 23 22 20 17 17 19 22 25 27 30 31 32 32 32 32 32 31 30 30 32 33 33 34 34 34 33 31 30 29 28 28 26 25 24 24 23 24 24 22 21 21 20 19 18 17 16 16 15 14 14 13 12 12
7 6 9 15 18 18 20 19 15 11 11 14 15 15 15 13 14 19 19 21 29 30 28 30 31 29 28 27 25 24 24 24 25 25 26 25 23 20 17 17 17 16 18 19 21 22 21 18 17 18 20 23 25 28 31 33 33 34 34 33 32 30 29 30 32 32 33 34 35 34 33 32 30 29 28 27 26 25 25 25 25 25 23 22 22 21 20 18 18 18 17 17 16 15 14 13 13
8 7 10 14 16 17 18 18 16 15 16 17 15 14 17 17 17 22 24 26 30 28 26 26 26 25 25 24 24 23 23 24 24 25 24 23 21 18 17 19 19 19 19 19 20 21 20 19 19 19 19 21 23 26 29 32 33 35 35 34 33 31 29 29 30 31 31 32 33 34 34 33 32 30 29 28 27 25 25 26 26 25 24 23 23 22 21 19 19 18 18 17 16 15 15 14 13
6 8 10 12 12 15 18 19 20 19 19 17 11 11 18 18 15 19 24 23 22 20 18 19 19 20 21 21 22 22 23 24 25 26 24 22 20 19 19 21 22 21 21 20 21 23 22 21 21 20 19 20 22 25 28 31 33 34 36 36 34 33 32 30 31 32 31 31 32 32 32 33 32 31 30 29 27 26 26 27 26 26 25 24 23 24 22 20 20 19 19 18 17 17 16 15 14
8 11 13 15 15 19 22 22 26 24 21 21 13 9 17 18 8 11 21 19 17 17 17 18 18 19 21 21 23 24 25 25 25 25 23 21 20 21 22 22 23 21 20 21 22 23 23 24 24 23 21 20 21 23 26 29 31 33 35 36 36 35 35 33 33 33 33 33 32 32 32 32 33 33 32 30 28 27 28 28 27 27 26 26 24 25 24 21 21 21 19 19 19 18 17 16 16
9 11 12 15 17 21 23 22 26 21 14 19 16 8 15 15 7 16 27 22 19 21 20 20 20 21 22 23 25 26 27 25 23 23 22 20 18 19 21 21 21 20 20 20 20 21 23 25 26 25 23 22 22 22 24 27 30 32 34 35 36 36 36 36 36 35 35 34 34 34 34 34 34 34 33 32 29 28 29 29 29 28 28 27 25 25 25 22 22 22 21 21 21 20 19 18 18
7 6 6 12 14 15 20 21 24 20 9 11 9 2 9 9 11 24 29 22 20 22 20 20 20 23 26 25 26 27 27 24 20 20 20 19 17 16 18 18 18 19 19 19 18 18 20 22 24 25 24 24 24 24 24 25 28 30 33 35 36 36 37 38 38 38 37 36 36 36 36 36 35 35 35 33 31 30 30 31 30 30 29 28 26 26 26 24 24 24 23 23 23 22 21 20 19
6 6 4 9 9 7 15 17 16 13 7 14 10 2 6 6 13 23 22 16 15 16 17 21 24 28 30 28 27 26 25 22 19 19 18 15 12 11 12 12 13 17 18 17 17 17 16 17 20 22 23 23 24 24 25 26 27 29 31 34 35 36 37 39 39 39 38 38 38 39 38 38 37 37 36 35 32 31 32 32 32 31 30 29 28 27 27 27 27 26 25 25 25 24 22 21 21
6 7 5 5 5 3 11 9 6 4 6 16 10 2 6 5 14 19 16 10 9 12 16 25 30 31 30 28 25 22 19 18 15 12 8 7 8 10 11 9 10 14 16 15 15 15 14 14 15 17 19 21 22 23 24 26 27 28 30 33 35 36 37 38 39 39 39 39 40 40 40 40 39 38 38 37 35 33 33 33 33 32 32 30 29 28 28 29 29 27 27 27 26 25 24 23 22
4 6 4 4 4 4 9 7 7 5 4 12 9 2 6 7 11 14 15 15 16 18 22 29 34 33 30 26 20 18 16 11 5 3 2 4 9 13 13 12 11 10 10 10 11 12 13 13 12 12 14 16 18 20 22 24 26 27 28 31 33 35 36 37 38 38 38 39 40 41 41 40 40 39 39 39 38 36 35 35 34 33 33 32 31 30 30 31 31 29 28 28 28 27 26 25 25
4 5 4 5 5 5 5 3 7 8 3 7 7 4 5 5 7 13 18 23 23 23 25 31 34 33 29 24 19 17 13 8 9 8 4 6 8 10 11 10 9 9 8 7 8 8 8 10 10 9 10 10 12 16 19 21 24 25 27 29 31 33 35 36 36 37 37 38 39 40 41 40 40 40 40 39 39 38 37 37 36 35 34 34 32 32 32 32 32 31 30 30 30 29 28 27 27
4 4 5 6 6 5 4 2 2 4 5 5 8 7 7 7 10 18 22 25 24 22 25 29 30 30 28 23 16 9 10 15 15 10 6 7 8 9 8 6 3 4 5 4 3 4 4 7 8 7 7 7 8 11 14 16 20 23 25 26 28 30 33 34 35 36 36 37 38 39 40 40 40 40 40 40 39 38 37 38 38 36 36 35 34 34 34 34 34 34 32 31 31 31 30 29 28
5 5 4 5 6 6 6 5 6 6 3 6 7 8 9 7 9 15 20 24 24 23 26 25 24 28 30 19 5 12 18 19 16 9 7 9 9 9 10 9 7 5 3 2 1 1 1 2 4 4 4 5 4 6 9 12 14 19 22 24 26 28 30 32 33 34 35 36 37 37 38 39 40 40 40 39 39 38 39 40 40 39 38 37 36 36 36 37 37 36 34 33 33 33 32 30 29
9 9 7 7 7 6 8 8 8 9 9 8 8 9 8 7 8 12 21 27 27 26 24 20 23 29 21 4 14 19 22 21 15 10 10 10 10 10 11 12 12 12 11 9 8 7 6 5 4 5 6 5 4 3 5 8 10 14 17 21 24 26 28 30 31 33 33 34 35 36 37 38 39 39 38 38 39 39 40 41 41 41 40 40 38 38 39 38 38 38 36 35 35 35 34 32 31
10 9 8 8 6 7 8 9 9 8 7 7 7 8 8 9 9 13 24 26 22 20 17 20 24 15 5 17 20 22 24 21 16 14 16 16 17 18 18 18 18 18 17 16 14 13 10 8 7 7 9 9 8 6 5 6 7 9 12 16 19 22 24 26 28 30 31 32 33 34 35 36 37 37 37 37 37 38 40 41 43 43 43 42 41 40 39 39 39 39 37 36 37 37 37 36 34
9 7 6 6 5 7 8 10 11 5 3 4 5 8 7 9 12 17 23 18 14 16 16 20 13 9 19 21 23 24 23 20 18 20 22 24 25 26 27 26 26 26 26 25 23 21 17 14 12 9 9 10 9 7 5 6 7 8 10 12 14 17 19 22 24 26 27 28 30 32 33 35 36 36 36 36 36 37 38 41 43 44 44 44 43 41 40 39 40 40 39 39 39 39 39 38 37
7 5 5 5 5 7 8 9 6 1 1 3 6 7 6 10 15 17 19 14 15 22 18 10 5 20 22 23 26 24 23 22 22 23 25 27 28 29 30 31 31 31 31 31 30 29 27 25 21 17 14 13 11 9 5 4 5 7 8 9 11 13 15 17 20 21 23 24 25 28 30 32 34 35 35 36 36 36 37 39 42 44 46 46 45 43 42 42 41 42 42 41 41 41 40 40 40
4 4 4 5 5 5 5 4 4 4 4 6 8 7 5 11 14 14 17 16 17 17 2 18 23 26 26 26 27 24 25 24 24 26 28 29 30 31 32 33 33 34 34 34 35 35 35 33 31 28 25 22 20 17 12 6 4 4 6 8 9 12 13 15 18 20 21 22 23 24 26 28 29 30 31 32 33 34 36 37 40 43 45 47 46 45 44 44 43 44 44 44 44 44 43 43 43
4 5 5 6 7 7 5 4 6 6 7 6 5 5 5 8 8 7 8 9 10 2 21 31 27 27 28 28 27 27 25 24 25 27 29 31 33 34 34 34 34 35 36 36 37 37 37 36 35 34 32 30 27 25 22 17 11 7 6 7 7 9 10 12 14 16 17 19 20 21 22 23 24 25 26 27 28 30 32 34 37 40 44 46 47 46 46 45 45 45 45 46 47 47 46 45 45
5 6 7 7 6 5 4 6 6 4 5 3 2 3 4 3 5 7 6 4 1 10 21 22 22 24 26 26 26 25 25 24 25 27 29 32 32 33 34 34 35 36 36 36 35 35 35 35 35 34 34 32 30 29 27 24 20 15 11 9 8 9 10 10 12 13 15 17 18 18 19 20 20 21 22 23 24 25 27 30 33 36 40 44 46 47 46 46 46 46 47 48 48 48 47 47 47
4 3 2 2 3 4 4 5 3 2 4 3 0 2 4 3 4 7 9 7 4 13 15 15 21 23 23 25 23 22 24 24 26 27 28 30 31 32 33 33 34 34 34 33 32 33 33 34 34 34 33 32 30 29 27 25 23 19 15 11 9 8 9 9 9 9 11 14 17 19 21 21 21 20 20 20 21 21 23 25 27 31 35 40 43 45 46 47 47 47 47 48 48 48 49 50 49
3 1 4 5 4 4 4 3 3 4 4 5 5 4 5 5 5 10 13 5 9 12 11 13 19 22 23 24 22 21 22 23 26 28 27 28 30 31 32 32 32 31 31 31 31 32 33 33 33 33 33 32 30 28 27 25 23 21 18 15 12 10 9 9 8 8 7 10 14 17 20 21 21 20 20 20 20 20 20 21 23 25 29 34 38 43 45 46 46 47 47 48 48 49 50 51 51
2 1 3 3 2 2 3 3 5 4 4 4 5 6 3 5 5 10 9 5 11 10 10 10 14 20 21 21 21 20 20 22 23 25 26 27 28 29 30 30 30 30 30 30 31 31 31 32 32 32 33 32 30 28 26 25 24 23 22 19 17 15 13 11 10 9 7 8 11 15 18 19 20 21 21 20 19 19 19 19 20 22 24 28 33 38 42 44 45 46 48 49 49 49 51 51 51
2 2 2 1 2 3 4 5 4 3 3 4 5 6 3 5 6 5 3 7 8 8 8 9 14 20 20 19 19 17 19 21 22 23 24 26 27 27 26 26 27 28 28 28 28 29 29 30 30 31 32 31 29 28 26 25 25 25 25 25 23 21 19 17 15 13 10 8 9 11 15 18 20 22 22 22 20 19 19 19 19 20 21 23 28 33 37 41 43 45 47 48 49 49 50 51 52
2 1 2 3 4 4 3 3 1 1 3 6 8 10 6 3 5 1 4 5 10 10 8 9 14 19 19 17 16 16 17 19 21 23 23 23 24 23 23 24 24 25 25 25 25 26 27 27 28 30 30 29 28 26 25 25 25 26 27 27 27 27 25 24 22 19 17 14 11 10 11 14 18 21 23 24 23 21 20 19 19 19 19 20 24 28 33 37 40 43 45 47 49 49 49 50 52
2 2 2 4 4 1 1 0 1 1 4 6 5 10 10 4 3 3 7 5 9 11 9 10 11 16 19 17 15 15 15 17 20 22 21 22 22 22 22 23 22 22 22 22 22 22 23 24 26 28 29 28 26 25 25 25 25 25 26 27 28 28 28 27 26 24 22 20 18 14 12 12 14 17 20 23 24 24 23 21 20 19 19 19 20 23 27 32 36 40 43 46 48 49 49 49 51
4 2 2 1 2 1 1 1 1 2 6 4 3 2 6 6 3 5 9 8 8 10 12 13 14 17 19 16 14 14 14 17 19 19 20 20 21 21 21 20 20 20 20 21 20 20 21 23 25 26 26 25 24 23 23 23 24 24 25 25 26 26 26 26 26 25 24 22 21 19 16 14 13 14 16 19 22 24 25 24 22 20 19 19 19 20 22 25 31 36 40 44 46 48 49 49 50
5 4 4 4 1 2 3 3 2 3 4 3 5 5 0 4 2 6 9 9 12 17 19 19 19 19 18 15 14 13 14 17 18 18 18 18 18 18 17 17 18 18 19 19 19 20 21 22 23 23 23 21 20 20 21 22 22 23 24 24 25 25 25 24 24 23 22 22 21 20 19 17 16 14 14 16 18 21 24 26 25 23 20 19 18 19 20 21 24 30 35 40 44 47 48 49 50
6 4 4 4 3 3 4 3 4 4 3 3 2 1 1 2 1 5 11 13 17 21 22 22 21 19 17 15 13 14 15 16 17 16 15 14 15 15 15 15 16 17 17 17 18 19 21 22 22 21 21 19 18 18 18 19 21 22 23 23 24 23 23 22 22 22 21 21 21 21 20 18 17 16 15 15 16 18 21 24 26 25 22 20 19 19 19 20 22 25 29 33 38 42 45 48 49
4 0 2 2 3 3 3 4 4 3 3 3 2 2 3 2 5 7 11 13 15 18 19 19 18 16 16 14 13 13 13 13 13 13 12 13 13 13 13 14 15 16 16 17 18 19 20 21 20 20 19 18 17 17 17 17 18 19 20 21 22 22 22 21 21 21 21 21 21 21 21 20 18 17 16 15 15 16 19 22 24 25 23 21 20 19 19 20 21 23 25 28 31 35 40 45 47
1 2 1 3 2 1 2 5 4 3 4 5 4 4 3 2 4 5 8 10 10 11 13 15 14 13 13 12 11 10 10 10 10 10 11 11 11 12 13 13 14 15 15 16 17 18 19 19 19 18 17 17 16 16 16 15 15 16 16 17 17 18 19 20 20 20 20 20 20 21 21 21 20 20 18 17 16 15 16 19 21 23 23 21 20 20 20 20 20 22 24 26 28 29 34 39 43
2 1 2 2 2 1 1 3 3 4 5 5 5 6 5 3 2 3 7 8 8 7 8 11 12 12 11 10 9 8 8 8 8 8 9 9 9 10 11 11 12 13 14 15 16 17 17 17 18 17 17 17 16 15 15 15 14 14 14 14 15 15 15 16 17 18 19 20 20 20 20 21 21 21 21 19 18 17 16 17 19 21 21 20 20 20 20 20 21 22 23 25 25 26 29 34 38
3 2 1 1 0 2 1 2 2 4 6 4 5 8 7 5 3 5 7 7 8 7 6 7 8 10 10 8 7 6 5 5 5 5 5 6 7 8 9 10 11 11 12 13 15 15 16 16 17 17 17 17 16 15 15 14 14 14 14 14 13 13 14 16 17 19 20 21 22 22 21 21 20 21 21 21 21 19 18 17 17 19 19 19 19 19 19 19 20 22 23 24 25 25 28 30 32
3 3 1 1 3 3 2 2 2 4 6 4 5 6 4 2 1 5 8 7 7 7 5 5 6 8 9 8 7 5 4 3 3 3 3 5 6 7 8 9 10 12 13 14 14 15 16 16 17 17 17 17 17 17 17 16 15 14 13 13 13 15 16 17 18 19 19 20 21 22 22 22 22 21 21 21 21 21 20 20 19 18 19 19 19 18 18 19 20 21 22 24 24 25 27 29 29
2 2 2 2 1 1 1 2 2 3 4 4 5 6 3 2 3 4 8 7 6 6 5 5 7 9 8 7 6 4 3 3 1 2 4 6 7 8 9 10 11 12 13 14 15 16 16 17 17 18 18 18 19 19 19 18 18 17 17 17 17 18 18 18 18 17 18 18 19 20 22 22 23 23 23 23 23 22 22 21 21 20 19 19 19 19 18 18 19 20 21 22 23 24 27 29 29
2 1 2 2 1 1 2 5 4 3 3 3 4 6 3 1 2 3 6 4 5 7 7 7 9 10 7 5 4 1 1 1 1 3 5 6 7 8 9 9 11 12 13 14 14 15 16 17 18 18 19 19 19 20 20 20 20 21 21 22 22 22 21 20 18 17 17 17 18 19 20 22 22 23 24 25 25 24 23 23 22 21 20 20 19 19 18 18 19 20 21 21 22 24 26 27 28
Wind_Direction
305 311 320 332 336 338 337 327 285 239 203 248 256 47 82 47 135 293 4 86 97 61 35 7 329 312 293 302 304 303 293 273 278 321 314 278 341 326 346 326 299 292 267 281 225 220 220 217 218 217 218 217 217 216 213 207 202 198 198 198 197 198 201 203 205 209 212 214 210 205 200 201 201 188 179 165 164 159 148 147 138 136 157 176 186 190 197 204 211 211 213 219 218 229 234 211 199
309 314 329 346 346 338 324 339 296 274 243 245 355 52 149 209 93 27 26 50 60 40 360 345 320 288 268 282 282 290 295 254 252 306 356 341 338 333 353 329 289 260 256 284 235 221 224 221 219 220 219 218 219 219 218 213 208 205 204 204 204 204 207 209 210 214 216 212 203 200 200 199 195 197 194 182 184 179 165 163 155 151 166 182 193 203 215 225 230 233 237 238 240 251 254 247 247
312 318 347 351 338 305 291 316 258 298 305 316 42 52 33 347 38 45 39 56 50 8 339 333 314 290 264 255 263 257 280 288 259 337 0 312 321 328 336 315 278 248 248 267 242 223 226 225 222 222 220 219 221 222 222 217 211 209 209 209 209 210 212 214 216 217 212 201 199 205 201 198 200 207 209 202 202 199 190 189 188 181 188 203 209 220 234 250 258 256 254 251 254 262 266 264 263
311 317 38 346 310 270 253 263 236 296 298 318 47 79 78 43 30 45 44 57 31 334 328 328 299 267 284 253 287 287 277 310 284 319 349 292 310 315 312 306 274 245 242 253 244 224 226 227 225 224 222 220 222 224 224 219 214 211 211 212 214 215 217 218 220 217 207 201 204 211 207 204 207 217 226 227 224 221 220 216 220 218 216 226 236 245 254 266 273 269 261 257 261 268 271 271 269
2 14 63 23 290 287 286 284 266 263 271 331 21 29 59 53 37 43 17 3 207 263 308 308 279 259 293 269 277 292 303 2 283 293 309 303 308 307 301 296 269 246 242 248 246 228 226 227 225 226 225 222 222 225 225 222 217 214 214 214 217 219 221 222 221 216 208 206 207 211 211 211 215 226 235 239 243 239 239 234 234 240 245 252 255 261 263 269 275 272 265 261 262 266 269 268 268
42 16 2 303 271 300 310 271 273 255 281 11 6 354 20 28 35 27 335 324 150 165 281 255 283 310 289 263 249 247 275 314 317 304 305 313 311 307 304 288 268 251 244 243 245 234 227 227 224 226 227 225 223 225 226 224 220 216 216 217 220 222 224 225 221 215 210 211 212 213 216 218 223 234 240 244 251 250 250 248 246 251 257 261 262 265 269 271 273 272 268 265 265 265 266 266 265
55 340 288 277 264 274 277 260 271 267 352 24 19 350 350 5 20 6 326 341 117 159 172 207 290 313 287 259 250 250 239 260 298 300 303 319 313 312 302 285 270 253 247 239 241 238 231 229 225 225 227 227 224 226 227 226 223 219 219 220 222 224 225 225 223 218 214 215 217 219 221 224 228 237 244 250 258 260 257 257 258 259 260 262 263 264 268 271 271 270 268 266 266 266 266 265 266
60 320 282 289 279 201 234 261 264 263 140 86 66 345 334 353 7 357 322 323 261 191 159 202 250 275 277 258 249 258 238 256 296 294 309 328 325 326 307 290 272 254 252 238 237 238 235 231 227 226 227 228 226 226 228 228 227 224 223 222 223 224 224 225 224 222 219 220 221 222 225 226 232 239 247 256 262 265 264 263 263 262 262 263 263 261 260 264 267 267 265 263 264 265 265 266 268
13 317 304 282 289 243 241 247 246 277 1 85 60 336 0 348 352 5 311 302 285 300 170 179 166 205 298 304 282 270 243 240 296 295 306 328 333 336 320 302 275 254 253 239 236 239 237 235 230 228 227 229 228 227 228 228 229 228 227 225 223 223 223 224 225 224 223 225 224 224 226 228 235 241 250 260 265 269 270 267 263 261 263 265 263 259 256 258 261 261 259 258 259 260 262 263 265
294 264 297 315 292 273 260 255 289 342 344 93 120 31 36 17 358 338 302 305 310 343 167 181 202 229 277 305 292 268 238 239 294 294 286 317 330 330 325 313 288 259 251 241 237 241 239 238 235 230 228 229 230 229 228 228 228 229 230 228 224 223 224 224 225 224 224 227 226 227 231 233 241 248 257 266 269 275 275 263 256 254 256 261 259 255 253 253 251 250 249 251 253 254 255 254 253
269 224 249 326 284 271 285 348 352 332 329 315 114 80 58 45 4 308 267 275 292 290 217 213 218 243 261 283 279 259 249 258 277 282 274 305 324 322 320 312 299 274 256 244 239 244 241 240 239 234 230 230 231 231 230 228 229 229 231 230 227 226 226 225 225 226 225 228 230 234 238 241 248 257 264 269 275 278 266 253 252 249 248 250 250 246 245 243 240 239 240 243 244 244 240 237 235
278 240 192 271 279 281 318 357 322 316 320 301 81 84 75 79 7 284 284 309 310 311 270 212 163 329 283 281 285 261 242 253 270 273 261 288 316 319 315 304 299 289 268 250 242 246 245 241 241 238 234 232 232 231 230 230 231 230 231 230 229 229 230 230 229 228 228 231 234 238 243 247 253 261 265 270 278 273 250 248 251 249 248 248 243 238 238 235 233 230 229 230 231 230 227 226 226
269 308 341 273 289 296 316 323 295 305 306 331 85 97 87 55 270 286 330 342 307 306 321 159 10 351 296 280 286 264 247 260 271 259 256 286 308 313 308 299 293 290 279 263 249 248 249 245 241 241 237 235 234 233 231 230 232 232 232 232 231 232 234 235 233 232 232 234 237 241 246 249 254 259 264 270 274 264 247 246 246 245 244 242 237 230 229 227 223 218 218 220 222 224 225 228 228
270 330 341 282 307 295 288 270 281 316 303 38 91 131 110 326 271 292 324 314 294 313 7 311 310 328 283 279 279 246 249 260 259 251 272 294 303 304 299 294 288 284 280 272 259 252 253 250 245 242 240 238 236 234 232 231 232 234 234 233 233 233 235 236 235 234 235 237 240 244 247 250 254 257 262 265 264 255 247 245 242 241 236 233 231 223 220 218 215 214 215 219 220 225 227 230 232
278 335 328 259 295 284 263 246 268 1 306 65 100 137 16 301 272 252 256 270 280 294 316 305 291 270 263 272 284 290 274 262 262 270 285 293 296 297 291 286 283 279 275 272 265 258 255 253 250 244 241 240 238 236 235 233 232 234 235 234 233 233 234 234 234 235 236 238 240 244 247 249 253 256 257 258 255 246 242 242 239 237 232 226 224 219 216 214 212 214 217 221 223 225 229 230 233
276 325 312 247 276 280 265 249 215 177 300 67 103 244 286 306 301 247 245 256 266 279 290 287 267 262 264 266 272 281 283 277 278 280 284 287 289 290 286 282 280 275 272 269 265 261 257 254 252 248 243 242 240 238 236 235 234 233 234 235 235 232 233 234 235 237 239 240 242 244 246 249 252 253 252 251 248 240 235 237 235 233 228 223 220 216 215 213 211 215 219 222 224 225 228 230 232
273 303 251 254 261 259 269 265 211 163 319 357 86 301 308 312 311 257 251 258 262 279 283 275 267 265 266 273 276 276 278 278 280 281 279 281 283 285 285 282 279 275 272 269 267 262 257 254 252 251 247 244 243 239 237 236 236 233 230 231 233 233 233 234 236 239 241 243 244 246 247 248 249 249 248 247 245 238 233 233 232 230 226 223 221 218 215 213 212 215 219 221 224 225 226 227 229
219 201 219 241 242 251 327 330 322 355 339 333 325 321 321 319 323 295 254 260 263 276 280 281 278 270 270 279 277 270 275 275 272 277 279 281 281 284 287 286 282 277 273 269 267 264 260 256 253 252 251 249 247 242 240 238 237 235 233 232 232 233 234 234 236 238 241 243 244 247 248 248 247 246 244 241 240 235 231 231 230 227 225 223 223 222 219 216 214 216 219 221 223 224 224 225 226
213 229 240 242 247 276 307 307 313 342 321 314 312 314 321 318 319 309 278 273 277 281 281 284 285 280 281 284 275 264 270 272 267 272 276 280 283 285 288 289 287 282 277 273 268 267 265 261 255 252 252 252 250 247 244 242 240 237 236 236 236 236 235 235 237 238 240 242 244 246 247 246 244 241 239 237 235 232 229 229 228 225 223 222 222 223 221 218 217 218 220 221 223 222 221 222 225
216 222 244 246 255 283 294 303 312 312 304 308 308 316 319 305 302 296 280 280 275 266 274 281 283 284 288 296 298 282 274 271 268 273 275 280 284 286 288 288 288 288 287 284 277 269 265 263 259 255 252 250 250 248 245 244 244 242 238 238 238 238 237 236 237 238 239 242 243 244 245 244 241 239 237 234 232 230 227 226 226 224 222 221 221 221 221 219 219 221 222 222 223 223 221 223 227
209 205 227 260 279 299 294 302 308 303 303 310 310 312 305 297 297 289 282 285 264 252 263 273 277 284 291 295 302 297 288 280 274 276 277 280 285 287 289 288 287 288 289 287 281 274 268 265 262 259 255 250 248 247 246 245 247 247 243 240 240 240 239 238 237 238 238 241 243 243 243 242 240 237 236 233 229 228 227 224 225 224 223 221 221 221 221 219 221 222 223 224 225 225 225 227 231
227 239 246 261 274 284 280 290 301 304 301 296 296 293 292 298 296 284 274 264 258 262 269 274 277 283 288 289 291 291 287 283 278 277 277 282 287 289 292 292 287 281 280 281 282 282 275 268 264 260 256 252 249 248 248 246 246 248 247 244 243 243 241 240 240 240 239 239 241 242 242 242 240 237 235 233 228 227 227 224 224 225 224 222 222 222 221 219 220 222 223 224 224 226 229 231 235
223 254 253 263 271 273 281 289 296 305 298 285 281 279 290 297 288 279 266 258 267 271 272 276 278 281 284 286 287 285 282 279 276 274 276 281 286 291 296 296 293 283 274 275 281 283 278 271 264 258 254 252 251 249 248 246 246 247 247 247 247 247 245 243 242 241 241 240 241 242 242 242 242 239 237 235 230 228 228 226 225 226 224 223 223 224 222 220 220 221 221 223 223 227 230 233 235
230 251 264 274 278 277 283 288 287 292 288 277 278 281 282 279 282 283 269 265 273 275 274 274 277 279 280 281 282 281 280 278 276 274 275 279 282 289 295 296 296 287 272 273 281 281 280 276 268 260 254 252 251 249 248 248 248 246 247 248 249 249 246 245 245 243 241 241 242 242 243 243 243 242 239 237 233 229 229 229 227 227 226 224 223 225 224 221 222 222 221 222 224 226 229 231 233
249 258 271 274 276 279 287 291 285 279 277 274 271 271 269 267 277 282 275 273 276 278 279 275 275 278 276 276 277 279 278 276 276 277 277 278 280 282 288 295 296 288 278 281 284 280 281 280 275 267 260 255 251 249 249 248 248 247 247 248 248 248 246 245 247 247 244 242 242 242 242 243 244 245 243 240 237 231 231 232 230 228 228 225 223 225 225 222 224 224 222 223 224 226 229 230 231
259 282 300 299 297 297 294 291 285 276 272 269 257 256 265 271 280 278 274 276 279 280 277 273 274 275 274 273 275 277 278 277 276 278 280 280 282 279 284 292 292 291 289 287 282 280 282 281 278 276 271 265 255 251 249 248 248 248 249 248 247 247 247 245 246 249 249 245 244 243 243 244 245 247 246 244 240 234 234 235 234 231 230 229 224 225 227 223 224 226 224 225 224 226 229 230 230
297 317 316 307 300 292 284 278 274 270 266 259 247 252 265 271 279 273 275 279 279 278 278 277 275 271 270 272 277 280 278 277 279 281 280 278 280 282 287 291 292 296 296 288 283 282 280 277 276 277 275 272 263 256 252 250 249 249 249 250 248 247 247 246 247 249 250 248 247 247 245 246 247 248 249 247 243 238 237 238 238 235 232 232 227 226 228 224 224 227 225 225 226 228 230 229 229
313 331 316 296 288 283 276 270 267 263 258 249 237 247 271 273 255 253 271 284 281 275 276 276 274 271 271 274 280 283 281 279 281 282 279 278 280 284 288 291 293 297 297 293 289 284 279 275 275 274 273 272 269 263 258 254 252 251 250 250 250 248 247 247 247 249 250 249 249 250 250 250 249 249 250 249 245 241 240 240 241 240 237 235 231 228 229 226 225 227 224 224 226 228 228 228 228
319 323 305 285 282 275 268 263 258 255 238 213 196 223 274 263 243 251 266 280 278 270 269 274 275 274 276 280 284 286 288 287 284 281 282 284 290 297 296 294 293 293 295 297 292 284 279 276 275 274 273 270 270 269 265 261 255 252 251 251 251 250 248 247 248 249 250 250 251 252 253 253 251 250 251 250 247 243 243 242 242 243 241 238 235 231 230 228 227 227 225 224 226 227 227 227 227
287 265 253 277 286 273 270 264 245 245 193 160 145 138 252 252 260 267 275 277 278 278 280 286 283 280 281 283 286 288 290 290 287 284 284 288 299 308 304 301 296 287 287 290 288 285 282 276 273 273 272 270 270 269 267 264 258 254 252 251 251 249 249 249 249 250 250 251 252 253 254 255 254 252 252 251 248 245 245 245 244 244 244 241 237 233 232 230 230 229 227 226 228 229 229 228 228
267 262 242 251 277 266 276 272 171 175 160 153 140 228 242 268 273 280 295 297 298 295 291 290 285 283 284 286 291 295 297 297 297 294 289 285 280 281 286 289 287 285 285 283 282 285 285 279 275 272 272 272 270 268 265 263 260 257 253 251 249 248 248 249 250 250 250 251 252 253 254 256 257 255 253 251 248 248 248 247 246 245 245 243 239 235 233 233 233 232 230 228 229 230 230 229 229
253 265 261 222 242 252 278 280 161 176 187 157 142 239 241 246 267 288 308 309 307 298 291 287 284 285 287 292 301 309 317 320 335 18 24 283 274 275 280 276 268 274 282 278 272 278 282 282 280 274 273 274 272 270 266 263 261 257 253 249 248 247 247 248 248 249 250 251 252 254 255 255 257 256 253 250 249 249 250 249 249 247 246 245 241 237 235 234 235 234 232 230 230 232 231 229 229
236 233 259 245 244 249 274 284 181 174 141 174 188 228 251 245 275 290 289 287 287 285 282 278 280 284 288 296 304 313 335 25 54 44 2 311 308 305 303 290 271 265 270 271 266 270 281 286 286 282 280 280 276 272 266 262 260 258 254 249 246 246 246 247 247 248 249 250 251 253 255 255 256 256 253 251 251 251 250 251 250 249 248 246 243 239 236 236 236 235 232 231 231 232 233 232 231
240 231 249 246 252 273 282 319 216 160 135 208 221 222 247 252 263 268 268 273 273 268 268 270 278 285 290 296 305 332 43 64 57 40 354 340 357 1 1 357 318 271 264 266 267 254 255 273 282 293 298 294 284 275 269 264 260 257 255 251 248 246 246 246 247 248 249 250 251 253 255 256 257 257 256 254 254 252 250 251 251 250 249 247 244 241 238 236 236 235 233 232 231 232 233 234 234
262 266 274 278 278 296 293 290 315 316 264 252 252 244 253 259 270 275 277 281 276 267 268 275 285 288 291 300 356 72 75 67 58 49 15 9 26 33 37 46 55 64 83 121 114 123 161 244 287 319 334 318 309 287 276 269 262 257 255 254 252 250 249 249 249 250 251 252 252 254 256 257 258 258 258 257 256 254 250 249 251 251 249 248 245 241 238 236 235 234 232 232 232 233 234 235 235
260 267 272 284 280 286 286 279 291 294 281 274 274 274 285 296 295 292 283 278 273 271 277 286 287 286 292 359 86 82 75 67 59 51 38 41 51 54 56 59 63 68 75 89 95 92 87 73 23 9 17 10 9 345 298 282 273 265 261 259 257 255 254 255 255 255 255 255 255 255 257 258 259 258 259 259 258 255 251 249 250 251 251 249 246 243 240 237 236 235 233 233 233 233 233 234 234
260 269 268 273 278 281 284 285 284 284 281 276 280 291 303 305 296 280 274 272 273 278 282 278 278 288 54 91 89 80 77 71 67 67 67 71 72 71 72 72 73 73 72 74 77 78 79 80 65 32 21 25 32 22 354 327 305 286 276 271 267 265 263 262 262 261 260 259 258 257 257 259 260 260 260 260 259 256 252 249 248 249 250 250 248 246 244 241 240 238 236 234 234 233 233 232 233
276 285 286 287 285 280 281 283 285 295 291 281 296 297 296 294 283 275 275 277 279 276 267 265 272 78 88 89 85 82 80 77 77 75 73 75 75 75 75 74 73 71 69 68 65 64 62 64 67 56 33 28 34 28 6 344 329 311 294 285 279 276 272 270 270 269 267 265 263 260 260 261 262 262 262 262 260 258 255 251 248 248 249 250 250 248 247 244 241 239 237 234 234 234 234 235 235
280 287 296 292 278 281 281 274 281 19 67 291 299 290 285 280 272 272 276 276 272 270 267 266 88 84 80 80 80 78 75 73 72 68 69 73 73 74 74 72 70 69 67 67 65 63 60 58 56 55 47 37 33 31 26 345 315 305 295 284 278 277 276 276 277 278 277 274 270 267 267 267 266 267 267 266 264 262 258 254 251 248 248 249 249 249 247 245 242 240 238 236 235 234 233 235 237
254 255 274 273 265 273 272 278 326 353 312 285 286 283 277 273 269 272 272 262 262 269 34 81 87 83 78 79 77 71 69 65 63 63 64 68 70 72 73 70 68 67 65 64 64 62 60 58 55 52 47 41 37 33 32 21 336 305 294 284 277 277 278 279 281 283 286 285 283 281 278 276 275 275 274 273 271 268 264 259 254 251 250 249 249 248 248 247 245 242 240 238 236 234 232 233 236
251 234 238 253 258 258 263 314 338 328 302 284 294 295 260 256 267 287 281 252 254 261 86 85 85 84 82 81 76 72 69 63 61 63 63 65 67 68 70 71 69 66 63 61 60 59 57 56 53 50 46 42 39 36 33 29 21 11 343 324 315 304 298 296 297 298 299 296 293 292 289 287 285 284 282 280 277 273 269 264 258 255 253 251 249 248 248 248 248 246 244 241 238 237 235 235 235
269 243 235 250 269 282 299 336 345 333 299 285 28 336 255 258 298 306 294 249 265 75 85 84 81 80 77 76 75 74 73 68 64 63 67 69 68 68 68 68 67 64 61 59 57 57 55 52 49 46 43 40 38 36 34 31 27 23 13 356 342 330 324 322 320 321 322 318 311 306 302 299 297 295 292 288 284 279 275 269 263 259 256 254 252 250 248 248 248 247 246 244 241 240 239 236 236
264 252 268 294 332 336 333 343 342 291 267 255 320 299 257 272 285 274 264 242 102 77 80 79 77 75 72 73 74 75 77 77 73 66 65 67 67 68 66 64 63 61 58 55 53 52 50 47 44 41 38 36 34 32 31 30 28 25 21 13 2 345 333 325 317 313 314 315 312 308 308 308 307 306 302 298 292 287 281 275 269 263 259 257 255 253 250 249 248 248 248 246 245 242 240 237 237
246 285 17 17 11 347 332 328 271 247 274 270 239 225 255 269 246 246 251 220 100 86 82 82 82 80 77 76 74 73 73 75 77 74 68 65 64 64 63 61 60 57 54 50 46 44 42 40 38 36 35 33 31 30 29 28 27 26 23 19 14 2 347 332 320 309 301 301 302 304 309 311 312 312 311 307 302 296 290 283 277 269 263 259 257 255 253 251 250 249 248 247 245 243 241 240 240
222 94 54 35 18 323 286 266 253 263 299 284 214 185 237 274 245 242 236 129 96 97 96 90 86 83 81 81 79 75 72 70 71 72 72 70 66 63 61 59 56 54 50 45 42 39 38 36 34 33 33 32 31 30 29 29 28 28 27 25 22 15 6 355 343 332 320 307 305 310 314 316 316 315 316 315 311 306 299 293 285 277 270 263 259 257 256 253 251 250 248 247 245 243 242 241 241
188 113 62 356 241 240 247 244 255 291 288 261 209 177 197 280 271 249 165 116 115 115 104 93 86 82 80 80 81 78 77 76 73 71 71 71 69 65 61 57 54 50 45 41 39 37 35 35 33 33 34 34 32 31 31 32 33 32 32 31 29 26 21 16 10 1 350 331 314 311 314 316 317 316 317 318 317 315 310 304 296 287 280 271 264 259 257 255 252 250 249 248 247 246 244 242 241
142 82 5 306 257 228 219 224 234 323 269 252 221 192 179 297 301 356 62 118 140 130 118 109 95 90 86 80 78 76 76 78 78 77 76 72 70 66 60 55 50 47 42 39 37 35 35 35 34 35 37 36 34 33 34 35 36 36 36 35 33 30 28 24 21 17 11 1 344 325 314 313 314 315 315 314 316 318 316 312 305 298 291 281 271 263 259 256 254 251 250 248 248 247 245 244 243
86 70 20 337 299 214 132 167 97 142 256 274 244 188 178 213 280 60 46 57 123 132 131 125 108 97 95 89 83 80 78 79 79 78 76 72 67 61 57 54 51 49 47 45 43 42 40 40 38 37 37 37 35 35 36 37 37 37 36 34 32 30 28 25 23 20 17 12 4 353 336 319 310 310 311 312 314 316 315 313 310 306 300 292 284 274 266 261 257 254 250 248 248 247 246 245 243
112 126 118 1 307 274 156 203 158 208 235 277 1 109 177 223 278 63 65 49 71 100 108 112 109 102 98 95 93 89 86 84 81 76 71 66 62 59 55 53 52 51 49 48 47 45 44 42 40 39 40 39 36 35 35 34 33 31 29 27 25 24 22 21 21 19 17 14 10 5 355 341 325 312 306 306 309 311 311 310 309 309 306 301 295 286 277 269 262 257 252 249 248 248 247 246 245
158 166 159 164 226 271 258 236 237 246 241 278 7 24 282 240 296 61 82 73 70 83 95 102 105 104 103 102 99 95 90 85 79 74 69 65 63 60 56 53 49 47 46 45 42 40 39 39 40 43 44 42 38 34 30 27 26 23 20 18 16 16 15 15 15 15 14 13 11 10 5 357 346 332 315 304 301 301 304 304 305 307 307 303 298 291 284 277 270 263 257 253 250 249 249 248 247
190 195 164 176 196 221 245 252 246 252 272 295 342 31 261 216 155 93 95 93 87 90 96 100 102 105 108 108 104 96 89 83 78 75 71 66 61 56 51 47 43 42 41 38 37 37 36 37 40 41 42 41 37 32 27 22 18 15 12 11 10 10 10 11 12 11 10 9 8 8 7 3 357 348 335 322 309 298 296 298 299 302 306 304 298 293 288 281 276 270 263 258 254 252 250 249 249
219 163 100 218 214 200 249 263 247 253 294 285 229 226 265 84 92 98 98 94 93 96 99 100 102 108 110 107 103 98 91 86 82 75 66 56 47 41 38 36 34 35 33 32 33 34 35 37 38 38 37 35 31 29 26 21 16 11 8 7 6 7 7 7 8 9 8 6 5 4 4 3 359 354 348 341 330 314 303 300 299 301 304 304 299 294 290 285 280 275 270 265 260 255 252 250 250
33 63 155 238 229 153 263 275 269 263 270 261 240 256 265 107 93 99 102 96 96 99 99 103 108 112 111 107 107 103 95 86 75 63 53 44 37 31 28 27 28 28 28 31 33 33 34 34 34 35 34 31 28 26 23 20 16 12 9 7 4 2 1 1 3 5 5 5 4 2 1 359 357 355 353 349 343 331 317 309 305 304 304 303 299 295 291 288 284 280 275 271 266 261 256 253 252
105 176 228 282 336 26 237 261 268 252 257 256 245 260 259 226 222 143 116 104 106 113 112 117 120 118 114 112 111 103 90 80 65 52 43 37 34 31 30 29 30 31 30 32 34 33 33 31 30 30 28 28 27 24 22 19 15 12 10 8 5 2 0 0 2 3 2 360 359 359 358 356 354 352 351 350 347 342 331 318 310 308 307 304 299 295 292 290 287 283 280 277 273 269 263 258 255
130 184 223 91 309 291 246 229 231 239 253 253 242 255 254 241 222 147 133 122 122 129 126 124 127 125 124 122 118 111 101 90 72 61 46 35 34 33 37 39 37 38 36 35 36 33 30 28 27 25 24 24 22 20 19 16 15 14 11 7 4 2 1 1 2 0 356 353 352 353 353 352 352 350 348 348 346 345 340 332 322 314 312 309 303 298 293 290 287 285 283 281 278 274 269 265 260
54 33 337 170 191 216 221 233 224 232 250 254 249 254 252 274 332 122 131 134 135 135 129 127 129 129 133 138 139 141 136 120 90 79 63 53 53 46 43 41 38 38 34 32 33 29 27 24 20 19 17 15 13 11 10 9 10 10 7 4 1 0 0 360 359 356 352 349 347 346 346 347 348 347 346 345 345 343 341 338 334 326 320 315 311 306 299 292 287 285 284 283 281 278 274 271 267
52 22 278 227 209 219 235 262 232 214 245 255 254 254 243 313 352 103 126 132 132 135 138 142 143 141 147 158 160 163 155 144 127 92 73 63 61 54 46 39 33 31 27 25 24 21 21 19 16 15 12 9 8 6 6 6 6 3 1 359 359 360 0 359 356 351 347 344 342 341 341 341 343 343 343 342 341 341 340 339 337 334 328 320 315 311 307 300 292 287 285 283 283 282 279 276 273
89 79 257 269 303 321 279 262 234 210 242 246 251 262 254 269 334 82 114 122 120 131 143 152 154 155 163 172 170 177 183 144 93 78 69 61 54 44 36 29 22 19 17 14 12 10 10 8 6 6 3 2 1 358 358 358 357 356 355 355 355 355 355 354 352 348 344 341 338 337 336 335 336 338 339 341 340 339 338 337 336 334 331 326 320 314 310 304 298 294 289 285 284 282 281 280 278